Time,TemperatureF,DewpointF,PressureIn,WindDirection,WindDirectionDegrees,WindSpeedMPH,WindSpeedGustMPH,Humidity,HourlyPrecipIn,Conditions,Clouds,dailyrainin,SoftwareType,DateUTC
2013-02-26 00:01:00,31.0,29.0,30.63,East,94,0.0,0.0,94,0.00,,,0.00,,2013-02-26 00:01:00,
2013-02-26 00:11:00,31.0,29.0,30.63,East,94,0.0,0.0,94,0.00,,,0.00,,2013-02-26 00:11:00,
2013-02-26 00:21:00,31.0,29.0,30.63,East,94,0.0,0.0,94,0.00,,,0.00,,2013-02-26 00:21:00,
2013-02-26 00:32:00,31.0,29.0,30.62,ENE,65,0.0,0.0,94,0.00,,,0.00,,2013-02-26 00:32:00,
2013-02-26 00:41:00,31.0,29.0,30.62,ENE,65,0.0,0.0,94,0.00,,,0.00,,2013-02-26 00:41:00,
2013-02-26 00:52:00,30.0,28.0,30.63,ENE,65,0.0,1.0,94,0.00,,,0.00,,2013-02-26 00:52:00,
2013-02-26 01:01:00,33.0,32.0,30.63,NE,48,0.0,3.0,95,0.00,,,0.00,,2013-02-26 01:01:00,
2013-02-26 01:11:00,33.0,32.0,30.63,NE,48,0.0,3.0,95,0.00,,,0.00,,2013-02-26 01:11:00,
2013-02-26 01:21:00,34.0,33.0,30.63,NE,41,3.0,5.0,95,0.00,,,0.00,,2013-02-26 01:21:00,
2013-02-26 01:31:00,34.0,32.0,30.63,NE,41,2.0,3.0,94,0.00,,,0.00,,2013-02-26 01:31:00,
2013-02-26 01:41:00,34.0,32.0,30.63,NE,41,2.0,3.0,94,0.00,,,0.00,,2013-02-26 01:41:00,
2013-02-26 01:51:00,34.0,32.0,30.63,NE,44,3.0,6.0,94,0.00,,,0.00,,2013-02-26 01:51:00,
2013-02-26 02:01:00,35.0,33.0,30.63,NE,36,4.0,8.0,94,0.00,,,0.00,,2013-02-26 02:01:00,
2013-02-26 02:11:00,35.0,33.0,30.63,NE,36,4.0,8.0,94,0.00,,,0.00,,2013-02-26 02:11:00,
2013-02-26 02:21:00,35.0,33.0,30.63,NE,49,4.0,8.0,94,0.00,,,0.00,,2013-02-26 02:21:00,
2013-02-26 02:32:00,35.0,33.0,30.63,NE,53,3.0,8.0,94,0.00,,,0.00,,2013-02-26 02:32:00,
2013-02-26 02:41:00,35.0,33.0,30.63,NE,53,3.0,8.0,94,0.00,,,0.00,,2013-02-26 02:41:00,
2013-02-26 02:52:00,35.0,33.0,30.63,NE,46,3.0,6.0,94,0.00,,,0.00,,2013-02-26 02:52:00,
2013-02-26 03:01:00,35.0,33.0,30.62,NE,38,3.0,7.0,94,0.00,,,0.00,,2013-02-26 03:01:00,
2013-02-26 03:11:00,35.0,33.0,30.62,NE,38,3.0,7.0,94,0.00,,,0.00,,2013-02-26 03:11:00,
2013-02-26 03:21:00,35.0,33.0,30.62,ENE,65,3.0,9.0,94,0.00,,,0.00,,2013-02-26 03:21:00,
2013-02-26 03:31:00,35.0,33.0,30.62,NE,42,2.0,7.0,94,0.00,,,0.00,,2013-02-26 03:31:00,
2013-02-26 03:41:00,35.0,33.0,30.62,NE,42,2.0,7.0,94,0.00,,,0.00,,2013-02-26 03:41:00,
2013-02-26 03:51:00,35.0,33.0,30.61,ENE,64,2.0,7.0,94,0.00,,,0.00,,2013-02-26 03:51:00,
2013-02-26 04:01:00,35.0,33.0,30.61,NNE,24,3.0,8.0,94,0.00,,,0.00,,2013-02-26 04:01:00,
2013-02-26 04:11:00,35.0,33.0,30.61,NNE,24,3.0,8.0,94,0.00,,,0.00,,2013-02-26 04:11:00,
2013-02-26 04:21:00,35.0,33.0,30.62,NE,37,2.0,9.0,94,0.00,,,0.00,,2013-02-26 04:21:00,
2013-02-26 04:31:00,35.0,33.0,30.62,NE,43,2.0,9.0,94,0.00,,,0.00,,2013-02-26 04:31:00,
2013-02-26 04:42:00,35.0,33.0,30.62,NE,43,2.0,9.0,94,0.00,,,0.00,,2013-02-26 04:42:00,
2013-02-26 04:51:00,35.0,33.0,30.62,ENE,57,3.0,7.0,94,0.00,,,0.00,,2013-02-26 04:51:00,
2013-02-26 05:01:00,34.0,32.0,30.62,ENE,72,2.0,8.0,94,0.00,,,0.00,,2013-02-26 05:01:00,
2013-02-26 05:11:00,34.0,32.0,30.62,ENE,72,2.0,8.0,94,0.00,,,0.00,,2013-02-26 05:11:00,
2013-02-26 05:21:00,35.0,33.0,30.62,East,92,4.0,7.0,94,0.00,,,0.00,,2013-02-26 05:21:00,
2013-02-26 05:31:00,35.0,33.0,30.62,NE,42,4.0,8.0,94,0.00,,,0.00,,2013-02-26 05:31:00,
2013-02-26 05:42:00,35.0,33.0,30.62,NE,42,4.0,8.0,94,0.00,,,0.00,,2013-02-26 05:42:00,
2013-02-26 05:52:00,35.0,33.0,30.62,ENE,59,3.0,10.0,94,0.00,,,0.00,,2013-02-26 05:52:00,
2013-02-26 06:01:00,35.0,33.0,30.62,NE,51,3.0,9.0,93,0.00,,,0.00,,2013-02-26 06:01:00,
2013-02-26 06:11:00,35.0,33.0,30.62,NE,51,3.0,9.0,93,0.00,,,0.00,,2013-02-26 06:11:00,
2013-02-26 06:21:00,35.0,33.0,30.63,NE,46,2.0,10.0,93,0.00,,,0.00,,2013-02-26 06:21:00,
2013-02-26 06:31:00,35.0,33.0,30.63,NE,40,3.0,6.0,93,0.00,,,0.00,,2013-02-26 06:31:00,
2013-02-26 06:41:00,35.0,33.0,30.63,NE,40,3.0,6.0,93,0.00,,,0.00,,2013-02-26 06:41:00,
2013-02-26 06:51:00,35.0,33.0,30.63,NE,44,2.0,5.0,93,0.00,,,0.00,,2013-02-26 06:51:00,
2013-02-26 07:01:00,35.0,33.0,30.64,NE,49,1.0,3.0,93,0.00,,,0.00,,2013-02-26 07:01:00,
2013-02-26 07:11:00,35.0,33.0,30.64,NE,49,1.0,3.0,93,0.00,,,0.00,,2013-02-26 07:11:00,
2013-02-26 07:22:00,35.0,33.0,30.64,NE,36,2.0,3.0,93,0.00,,,0.00,,2013-02-26 07:22:00,
2013-02-26 07:31:00,35.0,33.0,30.65,ENE,72,2.0,3.0,93,0.00,,,0.00,,2013-02-26 07:31:00,
2013-02-26 07:41:00,35.0,33.0,30.65,ENE,72,2.0,3.0,93,0.00,,,0.00,,2013-02-26 07:41:00,
2013-02-26 07:51:00,35.0,33.0,30.65,ESE,104,1.0,5.0,93,0.00,,,0.00,,2013-02-26 07:51:00,
2013-02-26 08:01:00,36.0,34.0,30.65,NE,45,3.0,5.0,92,0.00,,,0.00,,2013-02-26 08:01:00,
2013-02-26 08:11:00,36.0,34.0,30.65,NE,45,3.0,5.0,92,0.00,,,0.00,,2013-02-26 08:11:00,
2013-02-26 08:21:00,36.0,34.0,30.65,NNE,29,2.0,5.0,92,0.00,,,0.00,,2013-02-26 08:21:00,
2013-02-26 08:31:00,36.0,34.0,30.66,NE,45,2.0,7.0,92,0.00,,,0.00,,2013-02-26 08:31:00,
2013-02-26 08:41:00,36.0,34.0,30.66,NE,45,2.0,7.0,92,0.00,,,0.00,,2013-02-26 08:41:00,
2013-02-26 08:52:00,36.0,34.0,30.66,ENE,61,2.0,7.0,92,0.00,,,0.00,,2013-02-26 08:52:00,
2013-02-26 09:01:00,37.0,35.0,30.66,NE,51,4.0,7.0,91,0.00,,,0.00,,2013-02-26 09:01:00,
2013-02-26 09:11:00,37.0,35.0,30.66,NE,51,4.0,7.0,91,0.00,,,0.00,,2013-02-26 09:11:00,
2013-02-26 09:21:00,38.0,36.0,30.66,NE,56,5.0,9.0,91,0.00,,,0.00,,2013-02-26 09:21:00,
2013-02-26 09:31:00,38.0,35.0,30.66,NE,50,3.0,9.0,89,0.00,,,0.00,,2013-02-26 09:31:00,
2013-02-26 09:42:00,38.0,35.0,30.66,NE,50,3.0,9.0,89,0.00,,,0.00,,2013-02-26 09:42:00,
2013-02-26 09:51:00,39.0,36.0,30.66,ENE,57,3.0,10.0,89,0.00,,,0.00,,2013-02-26 09:51:00,
2013-02-26 10:01:00,39.0,36.0,30.67,ENE,63,3.0,8.0,88,0.00,,,0.00,,2013-02-26 10:01:00,
2013-02-26 10:11:00,39.0,36.0,30.67,ENE,63,3.0,8.0,88,0.00,,,0.00,,2013-02-26 10:11:00,
2013-02-26 10:21:00,40.0,36.0,30.67,NE,56,5.0,10.0,87,0.00,,,0.00,,2013-02-26 10:21:00,
2013-02-26 10:31:00,40.0,36.0,30.67,ENE,77,5.0,10.0,86,0.00,,,0.00,,2013-02-26 10:31:00,
2013-02-26 10:41:00,40.0,36.0,30.67,ENE,77,5.0,10.0,86,0.00,,,0.00,,2013-02-26 10:41:00,
2013-02-26 10:51:00,40.0,36.0,30.67,East,92,3.0,7.0,86,0.00,,,0.00,,2013-02-26 10:51:00,
2013-02-26 11:01:00,40.0,36.0,30.68,East,82,2.0,6.0,86,0.00,,,0.00,,2013-02-26 11:01:00,
2013-02-26 11:11:00,40.0,36.0,30.68,East,82,2.0,6.0,86,0.00,,,0.00,,2013-02-26 11:11:00,
2013-02-26 11:21:00,40.0,36.0,30.68,ESE,104,5.0,12.0,86,0.00,,,0.00,,2013-02-26 11:21:00,
2013-02-26 11:31:00,41.0,37.0,30.68,ENE,69,5.0,9.0,86,0.00,,,0.00,,2013-02-26 11:31:00,
2013-02-26 11:41:00,41.0,37.0,30.68,ENE,69,5.0,9.0,86,0.00,,,0.00,,2013-02-26 11:41:00,
2013-02-26 11:52:00,41.0,37.0,30.68,ENE,63,6.0,10.0,85,0.00,,,0.00,,2013-02-26 11:52:00,
2013-02-26 12:01:00,43.0,38.0,30.67,NE,50,6.0,12.0,83,0.00,,,0.00,,2013-02-26 12:01:00,
2013-02-26 12:11:00,43.0,38.0,30.67,NE,50,6.0,12.0,83,0.00,,,0.00,,2013-02-26 12:11:00,
2013-02-26 12:22:00,43.0,38.0,30.67,SE,128,4.0,12.0,82,0.00,,,0.00,,2013-02-26 12:22:00,
2013-02-26 12:32:00,43.0,38.0,30.67,East,88,3.0,8.0,84,0.00,,,0.00,,2013-02-26 12:32:00,
2013-02-26 12:42:00,43.0,38.0,30.67,East,88,3.0,8.0,84,0.00,,,0.00,,2013-02-26 12:42:00,
2013-02-26 12:52:00,45.0,39.0,30.66,ESE,105,3.0,9.0,80,0.00,,,0.00,,2013-02-26 12:52:00,
2013-02-26 13:01:00,46.0,39.0,30.66,East,98,2.0,10.0,76,0.00,,,0.00,,2013-02-26 13:01:00,
2013-02-26 13:11:00,46.0,39.0,30.66,East,98,2.0,10.0,76,0.00,,,0.00,,2013-02-26 13:11:00,
2013-02-26 13:21:00,46.0,39.0,30.66,East,98,3.0,10.0,77,0.00,,,0.00,,2013-02-26 13:21:00,
2013-02-26 13:31:00,46.0,39.0,30.65,NE,48,5.0,9.0,75,0.00,,,0.00,,2013-02-26 13:31:00,
2013-02-26 13:42:00,46.0,39.0,30.65,NE,48,5.0,9.0,75,0.00,,,0.00,,2013-02-26 13:42:00,
2013-02-26 13:51:00,47.0,39.0,30.65,East,97,5.0,9.0,74,0.00,,,0.00,,2013-02-26 13:51:00,
2013-02-26 14:01:00,47.0,38.0,30.65,NE,44,5.0,13.0,71,0.00,,,0.00,,2013-02-26 14:01:00,
2013-02-26 14:11:00,47.0,38.0,30.65,NE,44,5.0,13.0,71,0.00,,,0.00,,2013-02-26 14:11:00,
2013-02-26 14:21:00,47.0,38.0,30.65,East,87,3.0,13.0,71,0.00,,,0.00,,2013-02-26 14:21:00,
2013-02-26 14:31:00,47.0,38.0,30.64,NE,55,3.0,13.0,70,0.00,,,0.00,,2013-02-26 14:31:00,
2013-02-26 14:41:00,47.0,38.0,30.64,NE,55,3.0,13.0,70,0.00,,,0.00,,2013-02-26 14:41:00,
2013-02-26 14:52:00,47.0,38.0,30.64,ESE,103,6.0,10.0,70,0.00,,,0.00,,2013-02-26 14:52:00,
2013-02-26 15:01:00,46.0,37.0,30.64,East,98,5.0,10.0,70,0.00,,,0.00,,2013-02-26 15:01:00,
2013-02-26 15:11:00,46.0,37.0,30.64,East,98,5.0,10.0,70,0.00,,,0.00,,2013-02-26 15:11:00,
2013-02-26 15:21:00,46.0,37.0,30.63,East,94,6.0,13.0,72,0.00,,,0.00,,2013-02-26 15:21:00,
2013-02-26 15:32:00,46.0,37.0,30.64,NE,34,4.0,12.0,71,0.00,,,0.00,,2013-02-26 15:32:00,
2013-02-26 15:41:00,46.0,37.0,30.64,NE,34,4.0,12.0,71,0.00,,,0.00,,2013-02-26 15:41:00,
2013-02-26 15:51:00,46.0,37.0,30.63,NE,42,4.0,9.0,71,0.00,,,0.00,,2013-02-26 15:51:00,
2013-02-26 16:01:00,45.0,37.0,30.63,ENE,71,6.0,12.0,72,0.00,,,0.00,,2013-02-26 16:01:00,
2013-02-26 16:11:00,45.0,37.0,30.63,ENE,71,6.0,12.0,72,0.00,,,0.00,,2013-02-26 16:11:00,
2013-02-26 16:22:00,45.0,36.0,30.63,ENE,59,3.0,10.0,71,0.00,,,0.00,,2013-02-26 16:22:00,
2013-02-26 16:31:00,45.0,37.0,30.63,ENE,77,5.0,10.0,73,0.00,,,0.00,,2013-02-26 16:31:00,
2013-02-26 16:41:00,45.0,37.0,30.63,ENE,77,5.0,10.0,73,0.00,,,0.00,,2013-02-26 16:41:00,
2013-02-26 16:51:00,44.0,36.0,30.64,East,90,4.0,9.0,72,0.00,,,0.00,,2013-02-26 16:51:00,
2013-02-26 17:01:00,43.0,35.0,30.63,ENE,70,4.0,10.0,73,0.00,,,0.00,,2013-02-26 17:01:00,
2013-02-26 17:11:00,43.0,35.0,30.63,ENE,70,4.0,10.0,73,0.00,,,0.00,,2013-02-26 17:11:00,
2013-02-26 17:21:00,43.0,35.0,30.63,ENE,70,5.0,10.0,73,0.00,,,0.00,,2013-02-26 17:21:00,
2013-02-26 17:32:00,42.0,34.0,30.63,ESE,109,2.0,10.0,74,0.00,,,0.00,,2013-02-26 17:32:00,
2013-02-26 17:41:00,42.0,34.0,30.63,ESE,109,2.0,10.0,74,0.00,,,0.00,,2013-02-26 17:41:00,
2013-02-26 17:52:00,42.0,34.0,30.64,East,86,3.0,7.0,74,0.00,,,0.00,,2013-02-26 17:52:00,
2013-02-26 18:01:00,41.0,34.0,30.65,East,90,1.0,6.0,76,0.00,,,0.00,,2013-02-26 18:01:00,
2013-02-26 18:12:00,41.0,34.0,30.65,East,90,1.0,6.0,76,0.00,,,0.00,,2013-02-26 18:12:00,
2013-02-26 18:21:00,40.0,34.0,30.65,NE,54,2.0,7.0,79,0.00,,,0.00,,2013-02-26 18:21:00,
2013-02-26 18:32:00,39.0,33.0,30.65,East,90,2.0,8.0,80,0.00,,,0.00,,2013-02-26 18:32:00,
2013-02-26 18:42:00,39.0,33.0,30.65,East,90,2.0,8.0,80,0.00,,,0.00,,2013-02-26 18:42:00,
2013-02-26 18:52:00,39.0,33.0,30.65,ESE,107,1.0,7.0,80,0.00,,,0.00,,2013-02-26 18:52:00,
2013-02-26 19:01:00,39.0,34.0,30.66,East,82,2.0,5.0,82,0.00,,,0.00,,2013-02-26 19:01:00,
2013-02-26 19:11:00,39.0,34.0,30.66,East,82,2.0,5.0,82,0.00,,,0.00,,2013-02-26 19:11:00,
2013-02-26 19:22:00,39.0,34.0,30.66,NE,53,2.0,5.0,82,0.00,,,0.00,,2013-02-26 19:22:00,
2013-02-26 19:31:00,37.0,33.0,30.66,ENE,61,2.0,6.0,84,0.00,,,0.00,,2013-02-26 19:31:00,
2013-02-26 19:41:00,37.0,33.0,30.66,ENE,61,2.0,6.0,84,0.00,,,0.00,,2013-02-26 19:41:00,
2013-02-26 19:51:00,37.0,33.0,30.66,ENE,69,2.0,7.0,86,0.00,,,0.00,,2013-02-26 19:51:00,
2013-02-26 20:01:00,37.0,34.0,30.67,NNE,21,3.0,3.0,88,0.00,,,0.00,,2013-02-26 20:01:00,
2013-02-26 20:11:00,37.0,34.0,30.67,NNE,21,3.0,3.0,88,0.00,,,0.00,,2013-02-26 20:11:00,
2013-02-26 20:21:00,37.0,34.0,30.66,NE,54,1.0,5.0,88,0.00,,,0.00,,2013-02-26 20:21:00,
2013-02-26 20:31:00,35.0,32.0,30.67,East,84,2.0,3.0,90,0.00,,,0.00,,2013-02-26 20:31:00,
2013-02-26 20:41:00,35.0,32.0,30.67,East,84,2.0,3.0,90,0.00,,,0.00,,2013-02-26 20:41:00,
2013-02-26 20:51:00,35.0,33.0,30.67,East,92,0.0,3.0,91,0.00,,,0.00,,2013-02-26 20:51:00,
2013-02-26 21:01:00,35.0,33.0,30.67,East,92,0.0,2.0,91,0.00,,,0.00,,2013-02-26 21:01:00,
2013-02-26 21:11:00,35.0,33.0,30.67,East,92,0.0,2.0,91,0.00,,,0.00,,2013-02-26 21:11:00,
2013-02-26 21:21:00,37.0,35.0,30.67,ESE,106,1.0,3.0,93,0.00,,,0.00,,2013-02-26 21:21:00,
2013-02-26 21:31:00,36.0,34.0,30.68,ENE,62,0.0,6.0,93,0.00,,,0.00,,2013-02-26 21:31:00,
2013-02-26 21:41:00,36.0,34.0,30.68,ENE,62,0.0,6.0,93,0.00,,,0.00,,2013-02-26 21:41:00,
2013-02-26 21:51:00,37.0,35.0,30.68,ENE,63,1.0,3.0,93,0.00,,,0.00,,2013-02-26 21:51:00,
2013-02-26 22:01:00,37.0,35.0,30.68,East,91,2.0,6.0,94,0.00,,,0.00,,2013-02-26 22:01:00,
2013-02-26 22:11:00,37.0,35.0,30.68,East,91,2.0,6.0,94,0.00,,,0.00,,2013-02-26 22:11:00,
2013-02-26 22:21:00,37.0,35.0,30.68,NE,56,1.0,8.0,94,0.00,,,0.00,,2013-02-26 22:21:00,
2013-02-26 22:31:00,37.0,35.0,30.68,ESE,105,2.0,6.0,94,0.00,,,0.00,,2013-02-26 22:31:00,
2013-02-26 22:41:00,37.0,35.0,30.68,ESE,105,2.0,6.0,94,0.00,,,0.00,,2013-02-26 22:41:00,
2013-02-26 22:51:00,38.0,36.0,30.68,NE,50,1.0,6.0,94,0.00,,,0.00,,2013-02-26 22:51:00,
2013-02-26 23:01:00,37.0,35.0,30.68,NE,53,1.0,5.0,94,0.00,,,0.00,,2013-02-26 23:01:00,
2013-02-26 23:11:00,37.0,35.0,30.68,NE,53,1.0,5.0,94,0.00,,,0.00,,2013-02-26 23:11:00,
2013-02-26 23:21:00,37.0,35.0,30.68,ENE,77,1.0,3.0,94,0.00,,,0.00,,2013-02-26 23:21:00,
2013-02-26 23:31:00,37.0,35.0,30.68,East,94,1.0,3.0,94,0.00,,,0.00,,2013-02-26 23:31:00,
2013-02-26 23:41:00,37.0,35.0,30.68,East,94,1.0,3.0,94,0.00,,,0.00,,2013-02-26 23:41:00,
2013-02-26 23:52:00,37.0,35.0,30.68,ESE,109,1.0,3.0,94,0.00,,,0.00,,2013-02-26 23:52:00,